MOLNIYA 1-81

Last updated on Aug. 7, 2020, 5:36 a.m. UTC

1 21426U 91043A   20218.63064504 -.00000143  00000-0  00000-0 0  9992
2 21426  64.0530  69.9448 7017704 271.5742  16.2397  2.00609247213508
UTC
Height (km)
Latitude
Longitude
Inclination
Orbital Period
UTC large
Height (km)
Speed (km/s)
/
Latitude / Longitude
Inclination (degrees)
Orbital Period (minutes)
Azimuth
Elevation
Range (km)
Doppler Factor
iOS Compass Heading
iOS Angle

Next 30 passes for location: Hong Kong

Rise time Rise Azimuth (degrees) Set time Set Azimuth (degrees) Duration Max altitude (degrees)

No matching passes for this satellites